カタログに戻る

METEOR 1-17 DEB

運用中PO
NORAD 57543·DEBRIS·🇷🇺 Russia

打ち上げ Apr 24, 1974 から Plesetsk Cosmodrome

Loading…

次のパス (今後24時間)

TLE

最新Source: Space-Track

元期: Sep 14, 2026, 03:55 UTC

1 57543U 74025J   26257.16353610  .00003185  00000-0  14284-2 0  9997
2 57543  81.1984 196.6092 0012224  70.0902 290.1591 14.22253084170218

AllMySatでMETEOR 1-17 DEBをリアルタイム追跡

Download on the App Store